Starlink 6368

operational
NORAD ID: 57234 Int'l Des: 2023-094 Owner: SPXS Country: US Constellation: starlink
LEOCIRCULAR

Über Starlink 6368

Beschreibung wird geladen...

Live-Position

3D-Globus wird geladen...

Nächste Überflüge

Höhenverlauf

Altitude vs Time

uPlot chart will show altitude changes over time

Zweizeiliger Elementsatz

1 57234U 23094S 25351.05091909 -.00001481 00000-0 -94583-4 0 9997
2 57234 43.0023 118.9555 0001258 266.8979 93.1719 15.02532413134691
Epoch: 17. Dez. 2025 • Age: 19 hours

Aktueller Status

Höhe 571.4 km
Geschwindigkeit 7.58 km/s
Subsatellitenpunkt -42.77°S, 7.5°E
Startdatum 7. Juli 2023
Alter 2.4 years
Typ internet

Technische Details

Klassifizierung Payload
Masse 305.00 kg
Trockenmasse 290.00 kg
Gesamtmasse 305.00 kg
Länge 0.20 m
Durchmesser 2.80 m
Spannweite 9.00 m
Form Box + pan
Hersteller SPXS
Bus-Typ Starlink
Phasenstatus In Orbit
Besitzer/Staat SPXS/US

Große Konstellationen

Loading constellations...